Location: Bellerive
(46.9237°N, 7.0223°E)
Time: 18:09:26
(UTC+00:00)

STARLINK-1230 - Pass Details

Date: 09 April 2020
Orbit: 549 x 550 km, 53.0° (Epoch: 25 May)

Event Time Altitude Azimuth Distance (km) Brightness Sun altitude
Rises 19:08:56 0° 296° (WNW) 2,731 9.5 -10.0°
Reaches altitude 10° 19:11:14 10° 302° (WNW) 1,835 7.8 -10.3°
Maximum altitude 19:15:17 48° 18° (NNE) 728 4.3 -10.9°
Enters shadow 19:18:37 14° 90° (E) 1,564 5.4 -11.5°
